{"data":{"norad_id":66826,"intl_designator":"2025-280F","name":"STARLINK-35898","alt_names":[],"object_type":"PAYLOAD","status":"ACTIVE","operator":null,"country":"US","launch_date":"2025-12-02","launch_site_code":"AFWTR","launch_vehicle":null,"mission":null,"orbit_class":"UNKNOWN","rcs_meters":null,"size_class":null,"mass_kg":null,"dimensions":null,"purposes":["comms"],"wikipedia_slug":null,"has_3d_model":false,"image_url":null,"decayed_at":null,"tle_current":{"epoch":"2026-09-20T06:04:16.245984Z","epoch_age_seconds":105469,"freshness":"FRESH","line1":"1 66826U 25280F   26263.25296581  .00002172  00000+0  18973-3 0  9994","line2":"2 66826  70.0007 203.7289 0002902 269.0793  91.0033 14.98344337 45229","mean_motion":14.98344337,"eccentricity":0.0002902,"inclination_deg":70.0007,"raan_deg":203.7289,"arg_perigee_deg":269.0793,"mean_anomaly_deg":91.0033,"bstar":0.00018973,"rev_number":4522,"period_min":96.106079519958,"perigee_km":569.99462219736,"apogee_km":574.02848841886,"semimajor_km":6950.1485553081,"source":"CELESTRAK","updated_at":"2026-09-21T09:00:36.020530Z"}}}